Minneapolis Flying Cloud, MN

10:05 PM CDT on September 19, 2017 (GMT -0500)
Flying Cloud

Weather History for KFCM - September, 2011

Change the Weather History Date:

Friday, September 30, 2011

  Actual Average Record
Temperature  
Mean Temperature 56 °F -  
Max Temperature 63 °F 63 °F 87 °F (2002)
Min Temperature 46 °F 43 °F 32 °F (2003)
Degree Days  
Heating Degree Days 10    
Growing Degree Days 6 (Base 50)    
Moisture  
Dew Point 39 °F    
Average Humidity 59    
Maximum Humidity 80    
Minimum Humidity 30    
Precipitation  
Precipitation 0.00 in - - ()
Sea Level Pressure  
Sea Level Pressure 30.20 in    
Wind  
Wind Speed 10 mph (North)    
Max Wind Speed 14 mph    
Max Gust Speed 24 mph    
Visibility 10 miles    
Events      
Averages and records for this station are not official NWS values.
T = Trace of Precipitation, MM = Missing Value Source: NWS Daily Summary

Daily Weather History Graph

Daily Weather History Graph

Search for Another Location

Airport or City:

Trip Planner

Search our weather history database for the weather conditions in past years. The results will help you decide how hot, cold, wet, or windy it might be!

Date:

Astronomy

Sep. 30, 2011 Rise Set
Actual Time 7:10 AM CDT 6:56 PM CDT
Civil Twilight 6:41 AM CDT 7:25 PM CDT
Nautical Twilight 6:07 AM CDT 7:59 PM CDT
Astronomical Twilight 5:32 AM CDT 8:34 PM CDT
Moon 11:22 AM CDT (9/30) 8:45 PM CDT (9/30)
Length of Visible Light 12h 44m
Length of Day
11h 46m
Waxing Crescent, 15% of the Moon is Illuminated
Sep 30
Waxing Crescent
Oct 3
First Quarter
Oct 11
Full
Oct 19
Last Quarter
Oct 26
New

Hourly Weather History & Observations

Time (CDT) Temp. Windchill Dew Point Humidity Pressure Visibility Wind Dir Wind Speed Gust Speed Precip Events Conditions
12:53 AM 55.9 °F - 45.0 °F 67% 30.11 in 10.0 mi NNW 13.8 mph 24.2 mph N/A   Clear
1:53 AM 54.0 °F - 45.0 °F 72% 30.13 in 10.0 mi NW 13.8 mph - N/A   Clear
2:53 AM 53.1 °F - 45.0 °F 74% 30.13 in 10.0 mi NNW 9.2 mph 20.7 mph N/A   Clear
3:53 AM 52.0 °F - 45.0 °F 77% 30.14 in 10.0 mi NW 10.4 mph - N/A   Clear
4:53 AM 50.0 °F - 44.1 °F 80% 30.15 in 10.0 mi NW 10.4 mph - N/A   Clear
5:53 AM 50.0 °F - 44.1 °F 80% 30.16 in 10.0 mi NNW 11.5 mph - N/A   Clear
6:53 AM 48.9 °F - 43.0 °F 80% 30.17 in 10.0 mi NNW 8.1 mph - N/A   Clear
7:53 AM 48.9 °F - 43.0 °F 80% 30.19 in 10.0 mi NNW 9.2 mph 18.4 mph N/A   Clear
8:53 AM 50.0 °F - 44.1 °F 80% 30.21 in 10.0 mi NNW 8.1 mph - N/A   Clear
9:53 AM 53.1 °F - 43.0 °F 69% 30.22 in 10.0 mi NNW 9.2 mph 17.3 mph N/A   Partly Cloudy
10:53 AM 55.9 °F - 42.1 °F 60% 30.22 in 10.0 mi NNW 9.2 mph - N/A   Partly Cloudy
11:53 AM 57.9 °F - 39.0 °F 49% 30.22 in 10.0 mi North 9.2 mph 17.3 mph N/A   Clear
1:53 PM 62.1 °F - 35.1 °F 37% 30.21 in 10.0 mi NNW 10.4 mph 18.4 mph N/A   Clear
2:53 PM 62.1 °F - 32.0 °F 32% 30.20 in 10.0 mi NNW 6.9 mph - N/A   Clear
3:53 PM 63.0 °F - 30.9 °F 30% 30.19 in 10.0 mi North 8.1 mph 18.4 mph N/A   Clear
4:53 PM 62.1 °F - 30.9 °F 31% 30.19 in 10.0 mi NNW 9.2 mph - N/A   Clear
5:53 PM 60.1 °F - 32.0 °F 35% 30.20 in 10.0 mi North 10.4 mph - N/A   Clear
6:53 PM 55.0 °F - 33.1 °F 43% 30.21 in 10.0 mi North 4.6 mph - N/A   Clear
7:53 PM 53.1 °F - 34.0 °F 48% 30.23 in 10.0 mi NE 5.8 mph - N/A   Clear
8:53 PM 51.1 °F - 34.0 °F 52% 30.25 in 10.0 mi NE 4.6 mph - N/A   Clear
9:53 PM 50.0 °F - 36.0 °F 59% 30.27 in 10.0 mi East 9.2 mph - N/A   Clear
10:53 PM 48.0 °F - 35.1 °F 61% 30.29 in 10.0 mi East 6.9 mph - N/A   Clear
11:53 PM 46.0 °F 42.5 °F 34.0 °F 63% 30.30 in 10.0 mi East 6.9 mph - N/A   Clear